• In Deutschland
  • Länderverzeichnis
  • Für 7 Tage
  • Wassertemperatur
  • Satellitenkarten
  • Wetterkarte
  • Widgets
  • user-avatar
    Anmelden

    Stündliche Wetter Loubomo

    Heute, 21 August, Montag

    Zeit Temperatur Niederschläge Wind Luftdruck Luftfeuchtigkeit
    00:00 +22°C° 0,3 mm 1 m/S 702 mmHg 98%
    01:00 +22°C° 0,3 mm 1 m/S 702 mmHg 98%
    02:00 +22°C° 0,4 mm 1 m/S 701 mmHg 99%
    03:00 +22°C° 0,4 mm 1 m/S 701 mmHg 99%
    04:00 +21°C° 0,4 mm 1 m/S 701 mmHg 99%
    05:00 +22°C° 0,3 mm 1 m/S 701 mmHg 99%
    06:00 +22°C° 0,3 mm 1 m/S 701 mmHg 99%
    07:00 +22°C° 0,3 mm 1 m/S 701 mmHg 98%
    08:00 +22°C° 0,1 mm 1 m/S 702 mmHg 96%
    09:00 +23°C° 0,1 mm 1 m/S 702 mmHg 95%
    10:00 +23°C° 0,1 mm 1 m/S 702 mmHg 93%
    11:00 +24°C° 0,3 mm 1 m/S 702 mmHg 88%
    12:00 +25°C° 0,3 mm 1 m/S 701 mmHg 84%
    13:00 +27°C° 0,3 mm 1 m/S 701 mmHg 80%
    14:00 +26°C° 0,8 mm 1 m/S 700 mmHg 82%
    15:00 +26°C° 0,8 mm 1 m/S 700 mmHg 85%
    16:00 +26°C° 0,8 mm 1 m/S 699 mmHg 87%
    17:00 +25°C° 0,5 mm 1 m/S 699 mmHg 91%
    18:00 +24°C° 0,5 mm 1 m/S 700 mmHg 94%
    19:00 +23°C° 0,5 mm 1 m/S 700 mmHg 98%
    20:00 +22°C° 0,9 mm 1 m/S 700 mmHg 98%
    21:00 +22°C° 0,9 mm 1 m/S 701 mmHg 98%
    22:00 +22°C° 0,9 mm 1 m/S 702 mmHg 98%
    23:00 +22°C° 0,4 mm 1 m/S 702 mmHg 98%

    Morgen, 22 August, Dienstag

    Zeit Temperatur Niederschläge Wind Luftdruck Luftfeuchtigkeit
    00:00 +22°C° 0,4 mm 1 m/S 701 mmHg 99%
    01:00 +22°C° 0,4 mm 1 m/S 701 mmHg 99%
    02:00 +21°C° 0,5 mm 1 m/S 701 mmHg 99%
    03:00 +21°C° 0,5 mm 1 m/S 701 mmHg 99%
    04:00 +21°C° 0,5 mm 1 m/S 701 mmHg 98%
    05:00 +21°C° 0,1 mm 1 m/S 701 mmHg 98%
    06:00 +21°C° 0,1 mm 1 m/S 701 mmHg 98%
    07:00 +21°C° 0,1 mm 1 m/S 702 mmHg 98%
    08:00 +22°C° 0,1 mm 1 m/S 702 mmHg 96%
    09:00 +23°C° 0,1 mm 1 m/S 703 mmHg 94%
    10:00 +23°C° 0,1 mm 1 m/S 703 mmHg 93%
    11:00 +24°C° 0,6 mm 1 m/S 702 mmHg 90%
    12:00 +25°C° 0,6 mm 1 m/S 702 mmHg 88%
    13:00 +26°C° 0,6 mm 1 m/S 701 mmHg 86%
    14:00 +25°C° 0,7 mm 1 m/S 700 mmHg 88%
    15:00 +25°C° 0,7 mm 1 m/S 700 mmHg 91%
    16:00 +25°C° 0,7 mm 1 m/S 699 mmHg 93%
    17:00 +24°C° 0,2 mm 1 m/S 699 mmHg 95%
    18:00 +23°C° 0,2 mm 1 m/S 699 mmHg 97%
    19:00 +22°C° 0,2 mm 1 m/S 700 mmHg 99%
    20:00 +22°C° 0 mm 1 m/S 700 mmHg 99%
    21:00 +22°C° 0 mm 1 m/S 701 mmHg 99%
    22:00 +21°C° 0 mm 1 m/S 702 mmHg 99%
    23:00 +21°C° 0 mm 1 m/S 701 mmHg 99%

    übermorgen, 23 August, Mittwoch

    Zeit Temperatur Niederschläge Wind Luftdruck Luftfeuchtigkeit
    00:00 +21°C° 0 mm 1 m/S 701 mmHg 99%
    01:00 +21°C° 0 mm 1 m/S 701 mmHg 99%
    02:00 +21°C° 0,1 mm 1 m/S 701 mmHg 98%
    03:00 +21°C° 0,1 mm 1 m/S 700 mmHg 98%
    04:00 +21°C° 0,1 mm 1 m/S 700 mmHg 98%
    05:00 +21°C° 0,2 mm 1 m/S 701 mmHg 98%
    06:00 +19°C° 0,2 mm 0 m/S 701 mmHg 98%
    07:00 +19°C° 0,2 mm 0 m/S 702 mmHg 97%
    08:00 +20°C° 0,3 mm 0 m/S 702 mmHg 95%
    09:00 +23°C° 0,3 mm 1 m/S 703 mmHg 93%
    10:00 +23°C° 0,3 mm 1 m/S 703 mmHg 91%
    11:00 +24°C° 0,5 mm 1 m/S 702 mmHg 90%
    12:00 +24°C° 0,5 mm 1 m/S 702 mmHg 90%
    13:00 +24°C° 0,5 mm 1 m/S 701 mmHg 90%
    14:00 +24°C° 0,3 mm 1 m/S 700 mmHg 90%
    15:00 +25°C° 0,3 mm 1 m/S 700 mmHg 90%
    16:00 +25°C° 0,3 mm 1 m/S 699 mmHg 89%
    17:00 +24°C° 0,1 mm 1 m/S 699 mmHg 92%
    18:00 +23°C° 0,1 mm 1 m/S 700 mmHg 95%
    19:00 +22°C° 0,1 mm 1 m/S 700 mmHg 98%
    20:00 +22°C° 0,1 mm 1 m/S 700 mmHg 99%
    21:00 +22°C° 0,1 mm 1 m/S 701 mmHg 99%
    22:00 +21°C° 0,1 mm 1 m/S 702 mmHg 99%
    23:00 +21°C° 0 mm 1 m/S 701 mmHg 99%

    24 August, Donnerstag

    Zeit Temperatur Niederschläge Wind Luftdruck Luftfeuchtigkeit
    00:00 +21°C° 0 mm 1 m/S 701 mmHg 99%
    01:00 +21°C° 0 mm 1 m/S 700 mmHg 99%
    02:00 +21°C° 0,1 mm 1 m/S 700 mmHg 99%
    03:00 +21°C° 0,1 mm 1 m/S 700 mmHg 99%
    04:00 +21°C° 0,1 mm 1 m/S 700 mmHg 99%
    05:00 +21°C° 0 mm 1 m/S 700 mmHg 98%
    06:00 +21°C° 0 mm 1 m/S 701 mmHg 98%
    07:00 +21°C° 0 mm 1 m/S 701 mmHg 97%
    08:00 +22°C° 0 mm 1 m/S 701 mmHg 95%
    09:00 +23°C° 0 mm 1 m/S 702 mmHg 92%
    10:00 +24°C° 0 mm 1 m/S 702 mmHg 89%
    11:00 +25°C° 0 mm 1 m/S 702 mmHg 82%
    12:00 +26°C° 0 mm 1 m/S 701 mmHg 74%
    13:00 +28°C° 0 mm 1 m/S 700 mmHg 67%
    14:00 +28°C° 0,5 mm 1 m/S 700 mmHg 69%
    15:00 +28°C° 0,5 mm 1 m/S 699 mmHg 72%
    16:00 +28°C° 0,5 mm 1 m/S 699 mmHg 75%
    17:00 +26°C° 1,6 mm 1 m/S 699 mmHg 82%
    18:00 +24°C° 1,6 mm 1 m/S 699 mmHg 89%
    19:00 +23°C° 1,6 mm 1 m/S 700 mmHg 96%
    20:00 +22°C° 1,4 mm 1 m/S 700 mmHg 97%
    21:00 +22°C° 1,4 mm 1 m/S 701 mmHg 97%
    22:00 +22°C° 1,4 mm 1 m/S 701 mmHg 98%
    23:00 +22°C° 0,4 mm 1 m/S 701 mmHg 98%

    25 August, Freitag

    Zeit Temperatur Niederschläge Wind Luftdruck Luftfeuchtigkeit
    00:00 +21°C° 0,4 mm 1 m/S 701 mmHg 99%
    01:00 +21°C° 0,4 mm 1 m/S 700 mmHg 99%
    02:00 +21°C° 0,3 mm 1 m/S 700 mmHg 99%
    03:00 +21°C° 0,3 mm 1 m/S 700 mmHg 99%
    04:00 +21°C° 0,3 mm 1 m/S 700 mmHg 99%
    05:00 +19°C° 0,6 mm 0 m/S 700 mmHg 99%
    06:00 +19°C° 0,6 mm 0 m/S 701 mmHg 99%
    07:00 +19°C° 0,6 mm 0 m/S 701 mmHg 99%
    08:00 +20°C° 0,9 mm 0 m/S 701 mmHg 98%
    09:00 +22°C° 0,9 mm 1 m/S 702 mmHg 97%
    10:00 +23°C° 0,9 mm 1 m/S 702 mmHg 97%
    11:00 +24°C° 0,4 mm 1 m/S 701 mmHg 91%
    12:00 +25°C° 0,4 mm 1 m/S 701 mmHg 86%
    13:00 +26°C° 0,4 mm 1 m/S 700 mmHg 81%
    14:00 +26°C° 0,1 mm 1 m/S 700 mmHg 79%
    15:00 +26°C° 0,1 mm 1 m/S 699 mmHg 78%
    16:00 +27°C° 0,1 mm 1 m/S 699 mmHg 76%
    17:00 +25°C° 0,6 mm 1 m/S 699 mmHg 83%
    18:00 +24°C° 0,6 mm 1 m/S 699 mmHg 89%
    19:00 +23°C° 0,6 mm 1 m/S 700 mmHg 96%
    20:00 +22°C° 0,9 mm 1 m/S 700 mmHg 97%
    21:00 +22°C° 0,9 mm 1 m/S 701 mmHg 97%
    22:00 +22°C° 0,9 mm 1 m/S 701 mmHg 98%
    23:00 +21°C° 0,2 mm 1 m/S 701 mmHg 98%

    26 August, Samstag

    Zeit Temperatur Niederschläge Wind Luftdruck Luftfeuchtigkeit
    00:00 +21°C° 0,2 mm 1 m/S 701 mmHg 99%
    01:00 +21°C° 0,2 mm 1 m/S 701 mmHg 99%
    02:00 +21°C° 0,1 mm 1 m/S 700 mmHg 99%
    03:00 +21°C° 0,1 mm 1 m/S 700 mmHg 99%
    04:00 +21°C° 0,1 mm 1 m/S 700 mmHg 99%
    05:00 +21°C° 0 mm 1 m/S 700 mmHg 98%
    06:00 +21°C° 0 mm 1 m/S 701 mmHg 98%
    07:00 +21°C° 0 mm 1 m/S 701 mmHg 98%
    08:00 +22°C° 0,1 mm 1 m/S 702 mmHg 96%
    09:00 +22°C° 0,1 mm 1 m/S 702 mmHg 94%
    10:00 +23°C° 0,1 mm 1 m/S 702 mmHg 93%
    11:00 +24°C° 0,1 mm 1 m/S 702 mmHg 86%
    12:00 +25°C° 0,1 mm 1 m/S 701 mmHg 79%
    13:00 +27°C° 0,1 mm 2 m/S 701 mmHg 72%
    14:00 +27°C° 0,4 mm 1 m/S 700 mmHg 74%
    15:00 +27°C° 0,4 mm 1 m/S 700 mmHg 76%
    16:00 +27°C° 0,4 mm 1 m/S 699 mmHg 78%
    17:00 +25°C° 0,4 mm 1 m/S 699 mmHg 84%
    18:00 +24°C° 0,4 mm 1 m/S 700 mmHg 91%
    19:00 +22°C° 0,4 mm 1 m/S 700 mmHg 98%
    20:00 +22°C° 0,2 mm 1 m/S 700 mmHg 98%
    21:00 +22°C° 0,2 mm 1 m/S 701 mmHg 99%
    22:00 +21°C° 0,2 mm 1 m/S 701 mmHg 99%
    23:00 +21°C° 0 mm 1 m/S 701 mmHg 99%
    Mehr zeigen